CAPE
1228 1159 1191 1022 887 914 1063 1094 1103 1096 1055 1092 1096 1125 1312 1542 1825 1875 1798 1664 1613 1543 1480 1429 1369 1427 1609 1396 1282 1256 1110 926 850 790 703 893 954 1014 1063 1348 1566 1614
1507 1246 1100 1104 1061 1089 1068 1054 1160 1181 1277 1416 1480 1458 1370 1578 1695 1938 1899 1813 1821 1788 1739 1663 1560 1456 1380 1336 1268 1093 1036 1091 964 953 797 744 847 899 1098 1309 1401 1449
1758 1539 1326 1219 1234 1276 1237 1253 1348 1461 1591 1643 1693 1567 1452 1689 1690 1727 1815 1748 1710 1616 1571 1550 1519 1463 1402 1292 1128 1197 1199 1027 956 871 1026 868 799 872 1042 878 1176 1385
1893 1822 1554 1360 1409 1428 1430 1548 1639 1722 1742 1751 1681 1457 1571 1645 1729 1684 1683 2071 1820 1615 1540 1563 1650 1689 1606 1403 1151 1071 970 1025 932 875 799 779 826 804 779 776 1119 1204
1929 1933 1842 1729 1632 1572 1539 1709 1691 1706 1673 1616 1510 1436 1648 1724 1711 1689 1709 1621 1730 1723 1635 1692 1706 1701 1638 1492 1215 1143 1046 994 952 886 868 839 870 889 834 814 827 786
1891 1903 1900 1789 1658 1476 1610 1771 1693 1693 1637 1586 1571 1557 1471 1416 1508 1651 1719 1679 1541 1569 1627 1652 1648 1604 1523 1491 1339 1079 1081 1121 1119 1015 980 996 980 895 928 1118 1131 1064
1886 1907 1913 1817 1857 1518 1508 1614 1740 1669 1594 1527 1500 1450 1538 1537 1669 1764 1782 1742 1625 1656 1615 1599 1516 1416 1370 1424 1348 1091 1034 1068 1126 1090 1053 1030 1083 992 853 991 1195 1124
1812 1744 1770 1636 1676 1620 1608 1641 1666 1479 1602 1748 1694 1784 1844 1780 1773 1766 1777 1774 1753 1668 1577 1424 1337 1417 1432 1390 1243 1071 965 971 1005 1100 1120 1135 1150 1102 1051 884 1047 1080
1577 1444 1541 1529 1570 1455 1420 1526 1390 1230 1147 1228 1457 1547 1620 1612 1554 1620 1602 1561 1509 1408 1394 1368 1418 1440 1450 1430 1310 1161 1057 988 1041 1136 1227 1227 1114 1148 1100 1079 1056 1252
1453 1334 1464 1502 1429 1509 1447 1375 1258 1161 1425 1426 1469 1604 1545 1627 1473 1634 1590 1527 1482 1555 1508 1425 1405 1489 1533 1479 1371 1300 1220 1169 1213 1302 1320 1212 1118 1117 1086 1136 1152 1250
1274 1334 1315 1313 1293 1246 1230 1138 1080 1153 1253 1418 1539 1599 1485 1337 1640 1744 1516 1507 1512 1454 1386 1387 1388 1372 1337 1329 1270 1253 1240 1216 1238 1295 1320 1306 1303 1257 1278 1218 1198 1226
1508 1435 1367 1226 1118 1092 1095 1078 1081 1114 1281 1434 1514 1378 1282 1553 1415 1568 1746 1489 1425 1374 1263 1401 1404 1337 1224 1282 1165 1215 1317 1329 1321 1330 1351 1366 1303 1296 1173 1393 1355 1299
1543 1355 1113 1070 1143 1225 1272 1265 1198 1134 1107 1090 1202 1330 1276 1229 1218 1278 1335 1322 1320 1220 1127 1159 1194 1331 1349 1277 1136 1177 1320 1273 1224 1158 1150 1162 1153 1169 1147 1292 1332 1391
1263 1087 1191 1236 1212 1172 1167 1183 1176 1163 1196 1278 1315 1309 1248 1210 1213 1252 1288 1282 1256 1240 1435 1424 1300 1085 1115 1030 880 988 919 991 970 932 1031 1204 1232 1357 1299 1309 1346 1333
1328 1380 1326 1242 1210 1193 1203 1236 1246 1242 1240 1247 1238 1237 1224 1176 1108 1104 1299 1637 1598 1628 1490 1334 1333 1223 1241 1198 1072 1066 986 1090 1076 1006 942 1016 1177 1228 1333 1356 1435 1419
1513 1346 1258 1261 1252 1259 1299 1350 1367 1352 1355 1367 1347 1235 1418 1448 1436 1322 1323 1346 1304 1426 1483 1506 1462 1345 1386 1341 1501 1402 1207 1217 1193 1167 1023 923 1095 1115 963 1126 1285 1314
1494 1396 1319 1314 1386 1452 1340 1264 1208 1212 1165 1157 1182 1346 1483 1420 1502 1312 1337 1362 1353 1324 1341 1454 1561 1577 1932 1707 1636 1649 1826 1595 1244 1345 1433 1351 1180 1171 1218 1211 1108 1055
1666 1585 1472 1373 1282 1082 958 874 803 758 742 776 796 818 913 1081 1258 1379 1407 1391 1390 1395 1420 1473 1545 1609 1692 1678 1598 1700 1964 1930 1731 1389 1276 1233 1246 1257 1253 1305 1381 1320
1800 1669 1459 1222 1031 941 847 747 634 528 445 380 342 427 484 703 830 896 1024 1125 1130 1127 1186 1415 1455 1429 1453 1512 1592 1582 1712 1796 1738 1597 1425 1272 1186 1130 1115 1116 1197 1397
1766 1557 1262 1076 957 824 646 488 372 303 78 14 114 41 44 68 74 422 661 845 905 919 910 947 1064 1197 1416 1465 1445 1453 1544 1713 1772 1697 1646 1588 1483 1340 1195 1186 1204 1226
1549 1322 1114 900 698 575 475 369 281 21 0 4 0 28 4 35 46 110 337 360 444 635 741 799 806 790 975 1163 1334 1454 1544 1517 1474 1460 1502 1536 1612 1631 1521 1292 1113 1000
1202 962 753 612 470 366 285 160 0 0 3 199 63 116 62 27 81 241 263 300 264 363 404 385 413 436 470 565 720 956 1087 1174 1177 1104 1059 1149 1230 1335 1544 1531 1443 1304
859 703 554 400 306 235 203 6 1 0 194 206 189 147 132 143 211 218 306 323 346 335 326 360 402 313 265 386 477 605 657 680 705 735 814 852 892 995 1118 1243 1385 1562
615 469 387 322 266 59 29 0 0 0 0 107 96 104 107 144 193 267 265 318 248 146 189 2 195 158 24 51 330 396 400 373 404 444 496 627 707 724 882 1054 1092 1445
481 372 293 141 0 0 0 0 0 4 33 31 70 61 73 80 134 86 144 160 147 71 162 100 116 91 110 129 94 86 88 73 82 134 184 351 577 772 808 921 1068 1130
42 0 0 0 0 0 0 0 0 0 7 68 56 46 34 24 14 8 30 64 48 11 36 26 25 43 59 77 72 77 80 65 46 35 27 107 324 597 864 923 909 1020
Wind_Speed
8 10 10 9 7 7 8 8 8 8 6 7 7 7 7 8 9 9 9 9 8 8 7 6 7 7 7 7 7 8 8 8 9 11 11 11 10 9 8 8 9 9
9 14 12 9 8 8 8 8 9 8 7 6 6 7 8 9 9 10 10 9 9 7 6 6 7 7 7 8 8 8 8 10 9 12 12 11 10 10 8 8 9 10
11 14 11 9 8 8 8 9 10 9 8 7 7 7 8 9 8 9 9 9 8 7 6 6 6 7 8 8 8 9 9 9 9 11 12 11 12 11 10 10 10 10
10 12 11 9 8 8 10 11 10 9 9 9 8 8 9 9 9 8 9 7 8 7 7 7 7 8 9 9 9 10 9 9 9 10 11 13 13 12 11 11 10 11
9 10 11 12 11 13 16 9 7 8 9 9 9 9 9 9 9 8 9 8 8 7 8 8 9 9 10 10 11 11 11 10 9 10 11 12 13 14 12 12 11 10
8 9 11 16 16 14 10 6 6 9 10 9 8 10 9 9 10 9 8 8 8 8 8 9 9 10 10 11 12 12 12 12 11 10 10 11 12 14 13 13 12 11
6 7 10 16 11 9 9 6 8 9 9 10 11 9 10 10 10 10 9 10 9 9 9 10 11 10 12 12 13 13 13 13 12 11 10 12 13 12 13 13 13 12
5 7 10 16 12 8 8 8 10 10 11 13 9 10 11 11 11 11 11 11 11 10 10 10 11 11 11 13 13 14 14 15 13 12 11 11 13 12 13 13 13 13
10 6 10 14 12 9 8 9 10 11 11 9 11 11 12 11 11 11 12 11 10 10 11 11 12 12 13 13 15 15 14 14 13 13 12 12 13 13 13 14 13 14
2 1 6 10 10 9 8 10 12 11 11 10 9 10 9 10 11 11 12 11 10 10 11 12 12 12 13 14 14 15 15 14 14 14 14 13 13 13 13 14 13 14
5 5 6 7 7 8 7 9 11 11 10 8 9 9 9 10 11 12 12 12 11 10 11 11 12 13 13 13 14 14 14 15 15 15 14 14 14 14 14 15 15 15
8 6 5 4 4 5 7 8 10 10 9 9 8 8 9 10 11 11 11 10 10 10 10 10 11 13 13 13 14 14 14 15 15 16 16 15 15 15 14 15 16 17
7 6 4 4 4 5 8 8 9 9 8 7 7 8 8 10 11 11 11 10 10 10 10 10 11 12 13 14 15 15 15 15 15 15 16 17 16 15 15 15 15 16
6 5 5 5 6 8 9 8 7 6 6 7 8 8 8 9 10 11 11 11 10 10 11 12 12 13 14 15 15 14 15 15 16 16 16 17 17 16 15 15 15 15
6 5 5 6 7 9 7 6 5 6 7 7 7 8 8 8 10 11 11 11 12 13 14 15 14 14 14 15 13 13 14 14 15 16 17 17 17 16 16 16 16 17
8 7 6 6 6 6 6 6 6 7 8 9 9 9 10 10 11 11 11 12 12 14 16 17 17 17 16 13 12 14 16 16 17 17 17 17 17 17 17 17 16 17
7 7 7 7 7 7 7 7 8 8 9 9 8 8 8 8 9 9 9 9 10 11 13 15 17 18 19 18 13 11 14 17 17 17 18 18 18 18 18 18 18 18
9 8 8 7 8 8 8 8 7 8 8 8 7 7 7 8 8 8 8 8 8 8 9 10 12 17 17 17 17 16 15 16 18 19 20 21 21 20 20 20 19 20
11 11 10 10 9 9 8 8 9 9 9 9 9 8 9 10 9 9 9 9 9 10 10 10 13 14 13 15 16 18 19 18 19 19 19 20 21 21 20 20 20 20
14 13 13 12 11 11 11 12 11 11 nan nan 11 nan nan nan nan 13 13 13 13 14 15 16 16 16 16 17 17 17 16 17 18 17 17 17 17 18 19 19 19 20
17 16 16 15 13 13 13 14 13 nan nan nan nan nan nan nan nan 16 16 17 17 17 19 19 19 21 21 21 20 19 17 18 19 18 17 16 16 16 15 16 16 18
19 19 18 17 16 16 16 15 nan nan nan 14 nan 16 nan nan nan 18 19 19 20 21 22 22 23 23 25 26 24 22 19 24 22 21 20 19 18 19 18 17 16 16
20 20 19 19 18 18 18 nan nan nan 16 16 17 17 18 18 19 20 20 21 22 23 24 25 25 26 28 30 28 25 23 25 25 25 24 23 22 22 21 21 18 18
20 21 21 20 19 nan nan nan nan nan nan 18 nan 20 20 19 19 20 20 21 22 22 25 nan 26 27 nan nan 29 28 25 27 27 27 27 26 26 26 26 24 23 19
20 20 21 21 nan nan nan nan nan nan nan nan nan nan nan nan 21 nan 20 22 23 nan 26 27 25 nan 30 29 nan nan nan nan nan 28 27 27 27 27 28 29 28 28
nan nan nan nan nan nan nan nan nan nan nan nan nan nan nan nan nan nan nan nan nan nan nan nan nan nan nan nan nan nan nan nan nan nan nan 27 27 27 26 27 29 31
Wind_Direction
281 278 266 265 269 272 277 275 271 276 281 274 274 274 275 268 269 266 260 256 256 255 260 261 253 240 235 245 255 260 266 268 264 269 270 266 262 261 253 255 262 268
285 273 272 267 257 249 256 270 272 277 273 268 270 271 268 266 266 267 264 261 257 255 258 261 262 254 239 234 244 255 257 262 264 262 269 270 266 265 262 263 263 266
284 291 304 304 274 267 265 264 268 265 266 268 264 264 263 262 260 265 261 260 259 257 259 264 265 262 252 240 238 243 247 257 259 261 270 270 264 265 262 260 263 270
295 295 295 285 264 258 255 255 260 259 255 254 263 267 267 260 261 262 263 262 258 259 256 258 263 261 260 250 243 238 242 246 249 259 267 266 265 263 261 264 263 264
300 294 286 279 269 251 242 244 252 260 259 254 253 259 258 259 257 255 258 261 265 261 261 260 259 258 262 257 254 244 243 241 243 254 263 267 267 267 263 265 266 269
281 279 278 267 255 258 256 247 257 260 258 254 254 251 252 252 248 244 243 250 258 262 261 259 258 257 261 262 259 255 249 246 243 251 254 261 261 265 263 267 270 271
276 278 281 274 289 275 260 260 253 256 254 249 245 245 245 244 243 238 235 238 241 247 253 255 258 257 260 261 262 261 257 255 248 248 249 251 257 259 263 268 275 277
252 262 271 265 274 272 257 247 244 247 250 248 244 239 244 239 235 231 230 231 234 236 238 243 250 257 261 263 263 260 258 256 256 257 257 256 262 260 265 266 274 279
221 236 261 274 287 287 262 239 239 245 249 250 247 244 246 246 242 239 235 235 236 236 238 236 240 242 247 256 258 260 257 254 254 258 260 261 266 269 271 271 272 273
292 336 290 278 282 276 259 241 238 246 253 256 252 251 254 259 260 255 250 248 242 240 241 242 243 242 241 245 251 257 260 260 256 254 254 258 264 267 269 271 273 271
357 2 329 301 293 281 269 254 249 249 252 256 261 262 264 265 264 262 259 254 250 248 245 247 249 249 247 244 244 250 258 262 262 261 256 256 260 265 268 272 272 274
356 351 347 327 313 289 282 268 260 258 259 262 270 272 272 272 272 270 266 263 258 252 251 251 252 253 252 250 249 249 253 256 260 261 259 258 257 260 264 268 273 278
337 345 336 324 309 287 279 278 274 269 271 272 275 278 282 278 276 275 270 266 264 262 261 260 257 256 255 251 246 249 251 253 255 257 258 257 256 258 261 267 271 271
341 335 324 307 288 281 280 285 285 283 280 277 276 282 286 282 282 282 279 277 275 273 271 270 268 266 268 268 262 252 249 253 256 256 257 257 257 258 261 264 268 268
346 331 306 291 282 272 277 285 284 276 278 281 285 286 282 287 286 286 284 287 285 282 279 275 273 271 272 273 268 273 274 266 263 263 262 260 258 258 260 260 260 261
0 355 333 303 301 300 293 285 283 282 277 280 285 283 279 282 288 291 292 286 283 281 279 275 274 272 268 267 278 281 281 276 274 275 275 273 270 267 265 264 263 263
356 355 346 343 335 314 306 302 295 281 276 279 277 276 280 283 291 292 291 290 286 281 278 277 276 277 271 271 279 287 281 282 283 282 282 281 279 277 274 271 270 268
332 329 327 324 323 322 319 310 303 296 289 285 279 269 267 272 279 286 285 279 286 287 288 283 284 266 265 265 263 269 278 285 288 286 283 281 279 278 275 272 269 267
313 310 307 308 310 310 307 302 298 291 289 286 284 280 283 281 275 281 282 282 283 286 284 287 284 265 265 265 268 270 269 277 282 280 282 280 281 280 278 276 273 271
303 299 298 295 290 286 285 285 285 288 nan nan 282 nan nan nan nan 276 276 277 278 281 286 284 283 272 272 271 270 273 274 283 284 281 282 282 281 281 280 278 278 276
299 299 297 294 289 288 286 286 288 nan nan nan nan nan nan nan nan 276 276 277 277 282 286 286 282 278 275 271 270 271 269 278 287 289 290 291 287 282 280 279 278 279
304 302 301 301 299 296 294 292 nan nan nan 285 nan 281 nan nan nan 283 282 282 282 283 286 288 284 275 274 270 266 263 268 281 281 279 279 281 282 283 282 279 276 280
305 303 301 300 297 297 297 nan nan nan 288 288 281 281 281 282 285 285 285 286 286 285 286 286 283 278 274 271 268 264 272 279 278 279 280 280 281 284 284 283 278 277
300 299 298 295 295 nan nan nan nan nan nan 294 nan 293 289 289 288 285 282 281 282 283 287 nan 283 282 nan nan 271 267 271 278 278 278 277 277 278 281 284 284 283 280
291 291 293 294 nan nan nan nan nan nan nan nan nan nan nan nan 290 nan 284 280 279 nan 277 278 279 nan 278 276 nan nan nan nan nan 277 277 277 275 277 281 283 281 279
nan nan nan nan nan nan nan nan nan nan nan nan nan nan nan nan nan nan nan nan nan nan nan nan nan nan nan nan nan nan nan nan nan nan nan 276 276 275 273 277 281 279